TimeCST,TemperatureF,Dew PointF,Humidity,Sea Level PressureIn,VisibilityMPH,Wind Direction,Wind SpeedMPH,Gust SpeedMPH,PrecipitationIn,Events,Conditions,WindDirDegrees,DateUTC
12:53 AM,43.0,37.9,82,30.26,10.0,Calm,Calm,-,N/A,,Clear,0,2013-11-09 06:53:00
1:53 AM,43.0,36.0,76,30.26,10.0,Calm,Calm,-,N/A,,Clear,0,2013-11-09 07:53:00
2:53 AM,43.0,36.0,76,30.25,10.0,ENE,4.6,-,N/A,,Clear,70,2013-11-09 08:53:00
3:53 AM,44.1,37.0,76,30.25,10.0,East,5.8,-,N/A,,Clear,80,2013-11-09 09:53:00
4:53 AM,45.0,36.0,71,30.27,10.0,ENE,5.8,-,N/A,,Clear,70,2013-11-09 10:53:00
5:53 AM,44.1,35.1,71,30.30,10.0,Calm,Calm,-,N/A,,Clear,0,2013-11-09 11:53:00
6:53 AM,44.1,37.0,76,30.32,10.0,ENE,4.6,-,N/A,,Clear,60,2013-11-09 12:53:00
7:53 AM,48.9,37.9,66,30.33,10.0,East,6.9,-,N/A,,Clear,80,2013-11-09 13:53:00
8:53 AM,55.0,36.0,49,30.32,10.0,East,6.9,-,N/A,,Clear,80,2013-11-09 14:53:00
9:53 AM,62.1,36.0,38,30.32,10.0,East,5.8,-,N/A,,Clear,90,2013-11-09 15:53:00
10:53 AM,64.9,39.0,39,30.31,10.0,Variable,3.5,-,N/A,,Clear,0,2013-11-09 16:53:00
11:53 AM,66.9,42.1,40,30.28,10.0,Calm,Calm,-,N/A,,Scattered Clouds,0,2013-11-09 17:53:00
12:53 PM,66.9,45.0,45,30.24,10.0,Variable,3.5,-,N/A,,Clear,0,2013-11-09 18:53:00
1:53 PM,69.1,46.0,44,30.23,10.0,SE,3.5,-,N/A,,Clear,140,2013-11-09 19:53:00
2:53 PM,68.0,46.0,45,30.22,10.0,Calm,Calm,-,N/A,,Clear,0,2013-11-09 20:53:00
3:53 PM,66.0,46.0,48,30.22,10.0,North,5.8,-,N/A,,Clear,360,2013-11-09 21:53:00
4:53 PM,63.0,46.9,56,30.23,10.0,North,3.5,-,N/A,,Clear,360,2013-11-09 22:53:00
5:53 PM,60.1,48.0,64,30.25,10.0,North,3.5,-,N/A,,Clear,350,2013-11-09 23:53:00
6:53 PM,59.0,48.0,67,30.25,10.0,Calm,Calm,-,N/A,,Clear,0,2013-11-10 00:53:00
7:53 PM,57.9,48.0,70,30.25,10.0,Calm,Calm,-,N/A,,Clear,0,2013-11-10 01:53:00
8:53 PM,57.9,48.9,72,30.26,10.0,Calm,Calm,-,N/A,,Clear,0,2013-11-10 02:53:00
9:53 PM,57.0,48.9,74,30.27,10.0,Calm,Calm,-,N/A,,Clear,0,2013-11-10 03:53:00
10:53 PM,57.0,48.0,72,30.26,10.0,North,3.5,-,N/A,,Partly Cloudy,360,2013-11-10 04:53:00
11:53 PM,57.0,46.9,69,30.22,10.0,East,4.6,-,N/A,,Partly Cloudy,80,2013-11-10 05:53:00